Regional Weather Roundup
Issued by NWS

Home | Current Version | Previous Version | Graphics & Text | Print | Product List | Glossary On
Versions: 1 2 3 4 5 6 7 8 9 10 11 12 13 14 15 16 17 18 19 20 21 22 23 24 25 26 27 28
000
ASUS45 KTFX 211510
RWRMT
MONTANA REGIONAL WEATHER ROUNDUP
NATIONAL WEATHER SERVICE GREAT FALLS MT
800 AM MST TUE FEB 21 2017

NOTE: "FAIR" INDICATES FEW OR NO CLOUDS BELOW 12000 FEET WITH NO
SIGNIFICANT WEATHER AND/OR OBSTRUCTIONS TO VISIBILITY.

MTZ001>007-043-211600-
WEST OF THE DIVIDE

CITY           SKY/WX    TMP DP  RH WIND       PRES   REMARKS
KALISPELL      CLOUDY    31  29  92 CALM      29.64F
MISSOULA       LGT RAIN  33  33 100 CALM      29.67R FOG
BUTTE          LGT RAIN  38  31  76 SE9       29.69R WCI  31
MULLAN PASS    HVY SNOW  27  26  96 SE7       29.55F VSB 1/4 WCI  19
ANACONDA         N/A     39  32  75 SE13G21   29.67S WCI  32
DEER LODGE       N/A     30  30 100 N3        29.68R
EUREKA           N/A     28  27  93 CALM      29.66S
HAMILTON         N/A     34  34 100 CALM      29.64F
LIBBY            N/A     30  30 100 CALM      29.65F
PLAINS           N/A     32  27  82 CALM      29.68  VSB 0
RONAN            N/A     34  32  92 CALM      29.70F
$$

MTZ008-052>055-211600-
SOUTHWEST MONTANA

CITY           SKY/WX    TMP DP  RH WIND       PRES   REMARKS
BOZEMAN        PTCLDY    41  34  76 CALM      29.70F
DILLON         CLEAR     35  29  78 S7        29.71S WCI  29
W YELLOWSTONE  LGT SNOW  34  32  93 SW23G51   29.82F WCI  22
ENNIS          CLEAR     41  30  65 S17G32    29.78F
THREE FORKS      N/A     45 -23   5 NW3       29.69F
$$

MTZ009-010-012-014-046-048-049-054-211600-
EAST SLOPES AND CENTRAL MONTANA

CITY           SKY/WX    TMP DP  RH WIND       PRES   REMARKS
CUT BANK       MOCLDY    32  24  72 N10       29.61S WCI  24
GREAT FALLS    CLOUDY    37  31  78 S5        29.61F
MALMSTROM AFB  CLOUDY    36  33  91 SE7       29.62F WCI  30
HELENA         CLOUDY    33  32  96 W5        29.64F
AUGUSTA        MOCLDY    36  30  77 S5        29.60R
BOWMANS CRNR   MOCLDY    34  31  88 S13       29.59S WCI  25
CHOTEAU          N/A     39  30  70 CALM      29.62R
CONRAD           N/A     33  30  89 CALM      29.67S
POWER          MOCLDY    35  30  79 S6        29.60F WCI  30
RAYNESFORD     MOCLDY    40  31  69 SE13      29.63S
ULM            MOCLDY    40  31  71 MISG      29.61F
$$

MTZ011-013-016-021-045-047-050-051-211600-
NORTH CENTRAL MONTANA

CITY           SKY/WX    TMP DP  RH WIND       PRES   REMARKS
HAVRE          CLOUDY    36  31  82 W8        29.64R WCI  30
LEWISTOWN      CLOUDY    36  30  79 E3        29.66R
N BAR RANCH    CLOUDY    37  27  65 CALM      29.69S
CHINOOK          N/A     36  30  80 W6        29.65R WCI  31
DENTON         LGT RAIN  41  33  74 NE6       29.62S
FORT BENTON      N/A     36  30  80 CALM      29.65S
GEYSER         MOCLDY    38  31  78 N3        29.64S
GRASS RANGE    LGT RAIN  37  31  81 CALM      29.64R
JUDITH GAP     MOCLDY    37  30  73 SE10      29.65F WCI  30
ROY            LGT RAIN  46  33  62 MISG      29.66R
STANFORD       MOCLDY    37  30  75 NE7       29.63S WCI  31
WINIFRED       LGT RAIN  42  33  69 S6        29.66R
$$

MTZ017>020-022>027-061-062-211600-
NORTHEAST MONTANA

CITY           SKY/WX    TMP DP  RH WIND       PRES   REMARKS
GLASGOW        MOCLDY    36  32  85 CALM      29.65F
JORDAN           N/A     38  32  79 NW3       29.67F
SIDNEY         PTCLDY    30  28  92 CALM      29.69R
WOLF POINT     PTCLDY    26  24  92 SE5       29.66F
PLENTYWOOD       N/A     34  32  93 CALM      29.64S
POPLAR           N/A     30  28  93 CALM      29.67F
SCOBEY           N/A     36  27  70 SW2       29.63
$$

MTZ028>42-056>058-211600-
SOUTHCENTRAL AND SOUTHEAST MONTANA

CITY           SKY/WX    TMP DP  RH WIND       PRES   REMARKS
BAKER          MOSUNNY   37  30  75 NW3       29.72S
BILLINGS       CLOUDY    44  32  62 W9        29.70R
LIVINGSTON     CLOUDY    43  34  70 SW15      29.70R
MILES CITY     LGT RAIN  41  35  79 S5        29.73R
BIG TIMBER     PTCLDY    45  36  70 W23G30    29.70F
EKALAKA          N/A     47  29  50 SW7       29.74
FORSYTH          N/A     39  39 100 NE3       29.69F VSB 3/4
HARLOWTON      MOCLDY    35  29  78 CALM      29.66S
LAUREL           N/A     47  29  50 SW7       29.73R
$$

REGIONAL REPORTS...DAKOTAS

CITY           SKY/WX    TMP DP  RH WIND       PRES   REMARKS
WILLISTON      SUNNY     34  29  82 CALM      29.66S
MINOT          FLURRIES  34  30  85 S5        29.64S
DICKINSON      SUNNY     39  30  70 SW6       29.68R
BEACH            N/A    N/A N/A N/A MISG        N/A
CROSBY           N/A     32  32 100 S6        29.66R WCI  26
TIOGA            N/A     32  32 100 SW5       29.67R
WATFORD CITY     N/A     32  28  86 SW10      29.68S WCI  24
BISMARCK       MOSUNNY   33  30  88 SE5       29.70R
GRAND FORKS    MOSUNNY   33  29  85 SE7       29.70F FOG     WCI  27
FARGO          SUNNY     39  33  79 S10       29.69S
BUFFALO SD       N/A     48  34  58 W7        29.66S
RAPID CITY     SUNNY     56  34  43 N5        29.75S
$$

REGIONAL REPORTS...WYOMING/IDAHO/WASHINGTON

CITY           SKY/WX    TMP DP  RH WIND       PRES   REMARKS
GILLETTE       SUNNY     50  33  52 SW23G31   29.75R
SHERIDAN       CLOUDY    43  31  62 SW14      29.73R
BUFFALO WY     CLEAR     53  29  39 W21       29.77R
CODY           CLOUDY    39  32  76 S7        29.77F
YELLOWSTONE LA   N/A     32  29  88 W13G23    29.86S WCI  22
IDAHO FALLS    LGT RAIN  40  36  86 SW17G30   29.94R
SALMON         MOCLDY    37  34  87 N8        29.72S WCI  31
BOISE          CLEAR     49  32  52 S16G26    29.86R
SPOKANE        LGT SNOW  32  32 100 NE6       29.65R VSB 1   WCI  26
$$

REGIONAL REPORTS...ALBERTA

CITY           SKY/WX    TMP DP  RH WIND       PRES   REMARKS
EDMONTON       CLOUDY    32  27  80 SW5       29.66R
CALGARY        CLOUDY    28  25  86 N5        29.63R FOG
LETHBRIDGE     FOG       28  28 100 E3        29.63S VSB 1/8
MEDICINE HAT   FOG       32  32 100 CALM      29.67R VSB 1/4
WATERTON GATE    N/A     32  21  64 SW2         N/A
CARDSTON         N/A     28  27  93 S3          N/A
MILK RIVER       N/A     28  27  93 NW2         N/A
ONEFOUR          N/A     30  28  93 W3          N/A
$$

REGIONAL REPORTS...SASKATCHEWAN

CITY           SKY/WX    TMP DP  RH WIND       PRES   REMARKS
SWIFT CURRENT  FRZ RAIN  30  30 100 NE10      29.62R WCI  21
REGINA         MOCLDY    32  30  93 NE12      29.64R WCI  23
SASKATOON      CLOUDY    32  27  80 N5        29.70S
CYPRESS HILLS    N/A     28  27  93 NW6         N/A  WCI  22
VAL MARIE        N/A     30  28  93 S8          N/A  WCI  23
ROCKGLEN         N/A     36  32  87 W14         N/A  WCI  27
ASSINIBOIA       N/A     32  28  86 SW5         N/A
$$




USA.gov is the U.S. government's official web portal to all federal, state and local government web resources and services.